Terug naar catalogus

THORAD AGENA D DEB

ActiefPO
NORAD 5066·DEBRIS·🇺🇸 United States

Gelanceerd Apr 8, 1970 vanaf Vandenberg Space Force Base

Loading…

Volgende Passages

TLE

Source: Space-Track
1 05066U 70025JL  26228.63608635  .00000333  00000-0  23994-3 0  9997
2 05066  99.8646 107.4104 0065578 328.2905  31.4316 14.03792095849142

Volg THORAD AGENA D DEB in realtime met AllMySat

Download on the App Store